Regional Weather Roundup
Issued by NWS

Home | Current Version | Previous Version | Graphics & Text | Print | Product List | Glossary On
Versions: 1 2 3 4 5 6 7 8 9 10 11 12 13 14 15 16 17 18 19 20 21 22 23 24 25 26 27 28 29 30 31 32 33 34 35 36 37 38 39 40 41 42 43 44 45 46 47 48 49 50
000
ASUS43 KIND 211259
RWRIN

WEATHER ROUNDUP FOR INDIANA
NATIONAL WEATHER SERVICE INDIANAPOLIS IN
900 AM EDT TUE OCT 21 2014

NOTE: "FAIR" INDICATES FEW OR NO CLOUDS BELOW 12,000 FEET WITH NO
SIGNIFICANT WEATHER AND/OR OBSTRUCTIONS TO VISIBILITY.

* - STATION DOES NOT REPORT WEATHER SUCH AS PRECIPITATION OR FOG.

+ - STATION NOT QUALITY CONTROLLED BY THE NATIONAL WEATHER SERVICE.
    USE DATA WITH CAUTION...ESPECIALLY DEWPOINT AND RELATIVE
    HUMIDITY OBSERVATIONS.

INZ001>003-010>013-019-020-211400-
NORTHWEST INDIANA

CITY           SKY/WX    TMP DP  RH WIND       PRES   REMARKS
VALPARAISO     NOT AVBL

$$

LMZ046-743>745-211400-
SOUTHERN LAKE MICHIGAN

STATION/POSITION TIME  TEMP WIND        PRES
                       AIR  DIR/SP/G
                 (UTC) (F)  (DEG/KT/KT) (MB)
MICHIGAN CITY    1200   50  340/ 22/ 24   N/A

$$

INZ004-005-014>016-021>024-211400-
NORTH CENTRAL INDIANA

CITY           SKY/WX    TMP DP  RH WIND       PRES   REMARKS
ELKHART        CLOUDY    46  41  81 NW3       30.05R
GOSHEN         CLOUDY    47  41  80 NW10      30.04R
SOUTH BEND     LGT RAIN  48  45  89 NW9       30.07R

$$

INZ006>009-017-018-025>027-211400-
NORTHEAST INDIANA

CITY           SKY/WX    TMP DP  RH WIND       PRES   REMARKS
ANGOLA *+      CLOUDY    45  43  93 N6        30.02R
FORT WAYNE     PTSUNNY   48  42  80 NW10      30.03R

$$

INZ028-029-035-036-043>045-051>053-211400-
WEST CENTRAL INDIANA

CITY           SKY/WX    TMP DP  RH WIND       PRES   REMARKS
GREENCASTLE +  CLOUDY    46  45  93 CALM      30.07R
LAFAYETTE      CLOUDY    48  45  89 N7        30.08R
TERRE HAUTE    CLOUDY    50  47  89 NW5       30.08R

$$

INZ030>032-037>040-046>048-054>057-064-065-211400-
CENTRAL INDIANA

CITY           SKY/WX    TMP DP  RH WIND       PRES   REMARKS
ANDERSON       MOSUNNY   48  41  76 NW12      30.04
COLUMBUS       PTSUNNY   46  46 100 NW7       30.05R
INDIANAPOLIS   CLOUDY    48  44  86 NW8       30.06R
-EAGLE CREEK   CLOUDY    49  45  86 NW8       30.05R
KOKOMO *+      CLOUDY    48  43  81 NW8       30.06R
MT COMFORT *+  CLOUDY    48  45  87 NW7       30.05R
SHELBYVILLE    CLOUDY    50  46  86 NW6       30.04R

$$

INZ033-034-041-042-049-050-058-059-211400-
EAST CENTRAL INDIANA

CITY           SKY/WX    TMP DP  RH WIND       PRES   REMARKS
MUNCIE         PTSUNNY   49  42  77 NW9       30.02R

$$

INZ060-061-067>069-081>083-085>088-211400-
SOUTHWEST INDIANA

CITY           SKY/WX    TMP DP  RH WIND       PRES   REMARKS
EVANSVILLE     CLEAR     47  44  90 CALM      30.07R
HUNTINGBURG *+ CLOUDY    48  43  81 NE6       30.07R

$$

INZ062-063-066-070>080-084-089>092-211400-
SOUTH CENTRAL AND SOUTHEAST INDIANA

CITY           SKY/WX    TMP DP  RH WIND       PRES   REMARKS
BLOOMINGTON    CLOUDY    48  46  93 CALM      30.06R
SEYMOUR +      MOSUNNY   48  46  93 W3        30.05

$$




USA.gov is the U.S. government's official web portal to all federal, state and local government web resources and services.